Powrót do katalogu

STARLINK-1185

AktywnyŁącznośćVLEO
NORAD 45087·PAYLOAD·🇺🇸 United States

Wystrzelony Jan 29, 2020 z Cape Canaveral Space Force Station

Loading…

Następne Przeloty (najbliższe 24 godziny)

TLE

ŚwieżeSource: CelesTrak SupGP

Epoka: Sep 14, 2026, 22:01 UTC

1 45087C 20006AV  26257.91784722  .00116750  00000+0  15922-2 0  2571
2 45087  53.1529  61.7934 0000576  36.7315  27.1319 15.56825057    12

Śledź STARLINK-1185 w czasie rzeczywistym z AllMySat

Download on the App Store